Find Kosmos-2580

NORAD ID: 62216 Int'l Des: 2024-230 Owner: VVKOV Country: RU operational
LEOCIRCULAR

Live-Position

3D-Globus wird geladen...

Über Kosmos-2580

Beschreibung wird geladen...

Nächste Überflüge

Passes for default location (London). Set your location on the main map for personalized predictions.

Höhenverlauf

Loading altitude history...

Zweizeiliger Elementsatz

1 62216U 24230A 26106.86592069 -.00000062 00000-0 94210-5 0 9998
2 62216 67.1480 199.8904 0006739 266.9657 93.0656 13.96675434 69575
Epoch: 16. Apr. 2026 • Age: 21 hours

Aktueller Status

Höhe 921.0 km
Geschwindigkeit 7.40 km/s
Subsatellitenpunkt 67.22°N, 171°E
Startdatum 4. Dez. 2024
Alter 1.3 years
Typ other

Technische Details

Klassifizierung Payload
Masse 6575.00 kg
Trockenmasse 6500.00 kg
Gesamtmasse 6575.00 kg
Länge 6.30 m
Durchmesser 2.70 m
Spannweite 6.30 m
Form Cyl + 2 Pan
Hersteller TSSKBP/ARSLO
Bus-Typ Yantar'-Lotos
Phasenstatus In Orbit
Besitzer/Staat VVKOV/RU

Most Searched